Météo par heure à Al Khafji

Ce jour, 15 Mai, Samedi

Heure Température Précipitation Vent Pression Humidité
00:00 +36°C° 0 mm 3 m/s 750 mmHg 13%
01:00 +35°C° 0 mm 3 m/s 750 mmHg 13%
02:00 +35°C° 0 mm 3 m/s 750 mmHg 13%
03:00 +35°C° 0 mm 4 m/s 750 mmHg 13%
04:00 +35°C° 0 mm 4 m/s 750 mmHg 12%
05:00 +34°C° 0 mm 4 m/s 751 mmHg 11%
06:00 +34°C° 0 mm 4 m/s 751 mmHg 11%
07:00 +37°C° 0 mm 5 m/s 751 mmHg 10%
08:00 +40°C° 0 mm 5 m/s 751 mmHg 9%
09:00 +43°C° 0 mm 5 m/s 752 mmHg 8%
10:00 +45°C° 0 mm 5 m/s 752 mmHg 8%
11:00 +46°C° 0 mm 5 m/s 752 mmHg 7%
12:00 +47°C° 0 mm 5 m/s 751 mmHg 6%
13:00 +47°C° 0 mm 5 m/s 751 mmHg 6%
14:00 +47°C° 0 mm 4 m/s 750 mmHg 7%
15:00 +47°C° 0 mm 4 m/s 750 mmHg 7%
16:00 +44°C° 0 mm 3 m/s 750 mmHg 8%
17:00 +42°C° 0 mm 3 m/s 750 mmHg 10%
18:00 +40°C° 0 mm 3 m/s 750 mmHg 11%
19:00 +39°C° 0 mm 3 m/s 750 mmHg 11%
20:00 +37°C° 0 mm 3 m/s 751 mmHg 11%
21:00 +36°C° 0 mm 2 m/s 751 mmHg 11%
22:00 +36°C° 0 mm 3 m/s 751 mmHg 11%
23:00 +36°C° 0 mm 4 m/s 751 mmHg 11%

Demain, 16 Mai, Dimanche

Heure Température Précipitation Vent Pression Humidité
00:00 +36°C° 0 mm 5 m/s 751 mmHg 10%
01:00 +36°C° 0 mm 5 m/s 751 mmHg 11%
02:00 +35°C° 0 mm 5 m/s 751 mmHg 12%
03:00 +35°C° 0 mm 5 m/s 751 mmHg 12%
04:00 +35°C° 0 mm 5 m/s 751 mmHg 12%
05:00 +35°C° 0 mm 5 m/s 751 mmHg 13%
06:00 +35°C° 0 mm 4 m/s 752 mmHg 13%
07:00 +37°C° 0 mm 4 m/s 752 mmHg 11%
08:00 +40°C° 0 mm 3 m/s 752 mmHg 9%
09:00 +44°C° 0 mm 3 m/s 752 mmHg 7%
10:00 +45°C° 0 mm 3 m/s 752 mmHg 7%
11:00 +46°C° 0 mm 3 m/s 752 mmHg 6%
12:00 +47°C° 0 mm 3 m/s 752 mmHg 6%
13:00 +47°C° 0 mm 4 m/s 752 mmHg 6%
14:00 +47°C° 0 mm 4 m/s 751 mmHg 7%
15:00 +47°C° 0 mm 4 m/s 751 mmHg 7%
16:00 +44°C° 0 mm 4 m/s 751 mmHg 8%
17:00 +43°C° 0 mm 4 m/s 751 mmHg 9%
18:00 +41°C° 0 mm 4 m/s 751 mmHg 11%
19:00 +39°C° 0 mm 3 m/s 751 mmHg 11%
20:00 +37°C° 0 mm 3 m/s 752 mmHg 12%
21:00 +36°C° 0 mm 2 m/s 752 mmHg 12%
22:00 +36°C° 0 mm 2 m/s 752 mmHg 12%
23:00 +35°C° 0 mm 2 m/s 752 mmHg 13%

Après-demain, 17 Mai, Lundi

Heure Température Précipitation Vent Pression Humidité
00:00 +34°C° 0 mm 2 m/s 752 mmHg 13%
01:00 +34°C° 0 mm 3 m/s 752 mmHg 12%
02:00 +34°C° 0 mm 3 m/s 752 mmHg 12%
03:00 +34°C° 0 mm 3 m/s 752 mmHg 12%
04:00 +35°C° 0 mm 3 m/s 752 mmHg 12%
05:00 +35°C° 0 mm 3 m/s 752 mmHg 11%
06:00 +35°C° 0 mm 3 m/s 753 mmHg 11%
07:00 +38°C° 0 mm 2 m/s 753 mmHg 9%
08:00 +40°C° 0 mm 2 m/s 753 mmHg 8%
09:00 +43°C° 0 mm 1 m/s 754 mmHg 6%
10:00 +44°C° 0 mm 1 m/s 753 mmHg 6%
11:00 +46°C° 0 mm 2 m/s 753 mmHg 5%
12:00 +48°C° 0 mm 3 m/s 753 mmHg 5%
13:00 +49°C° 0 mm 4 m/s 753 mmHg 5%
14:00 +49°C° 0 mm 5 m/s 752 mmHg 5%
15:00 +49°C° 0 mm 6 m/s 752 mmHg 5%
16:00 +46°C° 0 mm 5 m/s 752 mmHg 10%
17:00 +42°C° 0 mm 4 m/s 752 mmHg 15%
18:00 +38°C° 0 mm 3 m/s 752 mmHg 20%
19:00 +37°C° 0 mm 3 m/s 752 mmHg 20%
20:00 +36°C° 0 mm 3 m/s 752 mmHg 21%
21:00 +35°C° 0 mm 2 m/s 753 mmHg 21%
22:00 +35°C° 0 mm 2 m/s 752 mmHg 19%
23:00 +35°C° 0 mm 2 m/s 752 mmHg 17%

18 Mai, Mardi

Heure Température Précipitation Vent Pression Humidité
00:00 +35°C° 0 mm 2 m/s 752 mmHg 15%
01:00 +34°C° 0 mm 2 m/s 751 mmHg 15%
02:00 +34°C° 0 mm 2 m/s 751 mmHg 15%
03:00 +34°C° 0 mm 2 m/s 751 mmHg 15%
04:00 +34°C° 0 mm 3 m/s 752 mmHg 14%
05:00 +34°C° 0 mm 3 m/s 752 mmHg 13%
06:00 +35°C° 0 mm 3 m/s 752 mmHg 12%
07:00 +38°C° 0 mm 3 m/s 752 mmHg 10%
08:00 +40°C° 0 mm 2 m/s 753 mmHg 8%
09:00 +43°C° 0 mm 2 m/s 753 mmHg 6%
10:00 +45°C° 0 mm 2 m/s 753 mmHg 6%
11:00 +47°C° 0 mm 3 m/s 752 mmHg 5%
12:00 +48°C° 0 mm 3 m/s 752 mmHg 5%
13:00 +48°C° 0 mm 3 m/s 752 mmHg 5%
14:00 +48°C° 0 mm 3 m/s 752 mmHg 5%
15:00 +49°C° 0 mm 4 m/s 751 mmHg 5%
16:00 +45°C° 0 mm 4 m/s 752 mmHg 8%
17:00 +43°C° 0 mm 4 m/s 752 mmHg 11%
18:00 +40°C° 0 mm 4 m/s 752 mmHg 14%
19:00 +38°C° 0 mm 4 m/s 752 mmHg 15%
20:00 +37°C° 0 mm 4 m/s 752 mmHg 17%
21:00 +36°C° 0 mm 4 m/s 752 mmHg 18%
22:00 +35°C° 0 mm 4 m/s 751 mmHg 17%
23:00 +35°C° 0 mm 4 m/s 751 mmHg 15%

19 Mai, Mercredi

Heure Température Précipitation Vent Pression Humidité
00:00 +35°C° 0 mm 4 m/s 751 mmHg 14%
01:00 +35°C° 0 mm 4 m/s 751 mmHg 13%
02:00 +35°C° 0 mm 4 m/s 752 mmHg 13%
03:00 +34°C° 0 mm 5 m/s 752 mmHg 12%
04:00 +34°C° 0 mm 5 m/s 753 mmHg 13%
05:00 +34°C° 0 mm 5 m/s 753 mmHg 14%
06:00 +34°C° 0 mm 6 m/s 753 mmHg 15%
07:00 +38°C° 0 mm 6 m/s 753 mmHg 12%
08:00 +40°C° 0 mm 6 m/s 754 mmHg 10%
09:00 +44°C° 0 mm 7 m/s 754 mmHg 8%
10:00 +45°C° 0 mm 6 m/s 753 mmHg 7%
11:00 +47°C° 0 mm 6 m/s 753 mmHg 6%
12:00 +48°C° 0 mm 5 m/s 753 mmHg 6%
13:00 +48°C° 0 mm 5 m/s 753 mmHg 5%
14:00 +49°C° 0 mm 5 m/s 752 mmHg 5%
15:00 +49°C° 0 mm 5 m/s 752 mmHg 5%
16:00 +47°C° 0 mm 4 m/s 752 mmHg 7%
17:00 +44°C° 0 mm 4 m/s 752 mmHg 8%
18:00 +40°C° 0 mm 3 m/s 752 mmHg 10%
19:00 +39°C° 0 mm 3 m/s 752 mmHg 10%
20:00 +38°C° 0 mm 3 m/s 752 mmHg 9%
21:00 +37°C° 0 mm 3 m/s 753 mmHg 9%
22:00 +37°C° 0 mm 4 m/s 753 mmHg 9%
23:00 +36°C° 0 mm 4 m/s 752 mmHg 9%

20 Mai, Jeudi

Heure Température Précipitation Vent Pression Humidité
00:00 +36°C° 0 mm 5 m/s 752 mmHg 9%
01:00 +35°C° 0 mm 5 m/s 752 mmHg 10%
02:00 +34°C° 0 mm 6 m/s 752 mmHg 10%
03:00 +34°C° 0 mm 6 m/s 752 mmHg 11%
04:00 +34°C° 0 mm 6 m/s 752 mmHg 11%
05:00 +34°C° 0 mm 5 m/s 753 mmHg 12%
06:00 +33°C° 0 mm 5 m/s 753 mmHg 12%
07:00 +36°C° 0 mm 5 m/s 753 mmHg 11%
08:00 +40°C° 0 mm 5 m/s 753 mmHg 9%
09:00 +43°C° 0 mm 5 m/s 754 mmHg 8%
10:00 +45°C° 0 mm 5 m/s 753 mmHg 7%
11:00 +46°C° 0 mm 5 m/s 753 mmHg 6%
12:00 +48°C° 0 mm 4 m/s 753 mmHg 5%
13:00 +48°C° 0 mm 4 m/s 752 mmHg 5%
14:00 +49°C° 0 mm 4 m/s 751 mmHg 5%
15:00 +49°C° 0 mm 4 m/s 751 mmHg 4%
16:00 +48°C° 0 mm 4 m/s 751 mmHg 5%
17:00 +45°C° 0 mm 4 m/s 751 mmHg 6%
18:00 +44°C° 0 mm 3 m/s 751 mmHg 6%
19:00 +43°C° 0 mm 4 m/s 751 mmHg 7%
20:00 +41°C° 0 mm 4 m/s 751 mmHg 7%
21:00 +40°C° 0 mm 4 m/s 751 mmHg 7%
22:00 +39°C° 0 mm 5 m/s 751 mmHg 8%
23:00 +39°C° 0 mm 5 m/s 751 mmHg 8%
Voir plus

Nous avons besoin de votre consentement

Meteoprog et ses fournisseurs de services peuvent stocker et accéder à des données personnelles telles que des cookies, des identifiants d'appareils ou d'autres technologies similaires sur votre appareil et traiter ces données pour personnaliser le contenu et les publicités, ainsi que pour fournir des fonctionnalités de médias sociaux et analyser le trafic.

  • Stocker et/ou accéder à des informations sur votre appareil

    Des cookies, des identifiants d'appareils ou d'autres informations peuvent être stockés ou accessibles sur votre appareil aux fins indiquées ci-dessus.

  • Annonces et contenus personnalisés, mesure des annonces et des contenus, connaissance de l'audience et développement de produits

    Les annonces et le contenu peuvent être personnalisés en fonction d'un profil. D'autres données peuvent être ajoutées pour mieux personnaliser les annonces et le contenu. Les performances des publicités et du contenu peuvent être mesurées. Il est possible d'obtenir des informations sur le public qui a vu les publicités et le contenu. Ces données peuvent être utilisées pour développer ou améliorer l'expérience de l'utilisateur, les systèmes et les logiciels.

En cliquant sur "J'accepte", vous autorisez l'utilisation de cookies, des identifiants d'appareils, des balises web ou d'autres technologies similaires. Vos paramètres peuvent être modifiés dans le navigateur de votre appareil.

Dans certains cas, des intérêts légitimes peuvent être invoqués plutôt qu'un consentement. Vous pouvez en savoir plus à ce sujet dans notre Politique de confidentialité et de cookies.